Regional Weather Roundup
Issued by NWS

Home | Current Version | Previous Version | Graphics & Text | Print | Product List | Glossary On
Versions: 1 2 3 4 5 6 7 8 9 10 11 12 13 14 15 16 17 18 19 20 21 22 23 24 25 26 27
000
ASUS45 KBOU 230607
RWRCO

WEATHER ROUNDUP FOR COLORADO
NATIONAL WEATHER SERVICE DENVER/BOULDER CO
1200 AM MDT THU OCT 23 2014

NOTE: "FAIR" INDICATES FEW OR NO CLOUDS BELOW 12000 FEET WITH NO
SIGNIFICANT WEATHER AND/OR OBSTRUCTIONS TO VISIBILITY.

COZ001>005-013-030-031-230700-
...NORTHWEST COLORADO...

CITY           SKY/WX    TMP DP  RH WIND       PRES   REMARKS
CRAIG          CLEAR     32  30  92 CALM      30.25S
HAYDEN         CLEAR     39  32  75 E10       30.24F
MEEKER         CLEAR     42  36  79 E6        30.25S
MOUNT WERNER   NOT AVBL
STEAMBOAT SPGS CLEAR     36  31  82 CALM      30.26F
WALDEN         CLEAR     30  27  86 E7        30.28F WCI  23
$$

COZ006>008-011-230700-
...WEST CENTRAL VALLEYS...

CITY           SKY/WX    TMP DP  RH WIND       PRES   REMARKS
GRAND JUNCTION CLEAR     47  37  68 VRB3      30.18S
MONTROSE       PTCLDY    47  38  71 SE8       30.26R
EAGLE          CLEAR     39  39 100 E5        30.30F
RIFLE          CLEAR     43  37  79 E5        30.24S
DELTA          CLEAR     48  34  58 NE6       30.23S
NUCLA          NOT AVBL
$$

COZ017>023-064>068-230700-
...SOUTHWEST COLORADO...

CITY           SKY/WX    TMP DP  RH WIND       PRES   REMARKS
DURANGO        CLEAR     41  36  82 CALM      30.27R
CORTEZ         CLEAR     43  35  73 E6        30.25R
PAGOSA SPRINGS CLEAR     39  38  95 CALM      30.32S
TELLURIDE      CLEAR     41  33  74 SE6       30.40S
WOLF CREEK PAS PTCLDY    32  32 100 SW8         N/A  WCI  25
$$

COZ009-010-012-014-032>034-037-058>063-230700-
...CENTRAL COLORADO...

CITY           SKY/WX    TMP DP  RH WIND       PRES   REMARKS
ASPEN          CLEAR     36  33  89 S7        30.31F
BUENA VISTA    PTCLDY    33  30  88 CALM      30.31S
COPPER MTN     MOCLDY    34  23  64 W9        30.46S WCI  26
BERTHOUD PASS  FAIR      27  23  86 NW28G37   30.44F WCI  11
COTTONWOOD PAS PTCLDY    43  28  56 N5        30.38R
GUNNISON       CLEAR     39  32  75 CALM      30.35R
KREMMLING      CLEAR     34  32  93 CALM        N/A
LEADVILLE      CLEAR     31  24  75 NE6       30.37F WCI  25
MONARCH PASS   MOCLDY    32  30  93 W17       30.56S FOG     WCI  21
SALIDA         CLOUDY    48  35  62 NW7       30.37S
SUNLIGHT       CLEAR     36  32  87 CALM      30.43F
WILKERSON PASS NOT AVBL
$$

COZ069>075-230700-
...SAN LUIS VALLEY/SANGRE DE CRISTO MOUNTAINS...

CITY           SKY/WX    TMP DP  RH WIND       PRES   REMARKS
ALAMOSA        CLEAR     40  32  73 NW7       30.28S
LA VETA PASS   CLEAR     39  32  75 S3        30.38S
SAGUACHE       CLEAR     46  32  57 NW15      30.30F
$$

COZ035-036-038>040-230700-
...NORTHERN COLORADO FRONT RANGE...

CITY           SKY/WX    TMP DP  RH WIND       PRES   REMARKS
DENVER INTL AP PTCLDY    50  41  71 SW9       30.15S
DMNS CITY PARK   N/A     49  40  72 SE1       30.14F
AURORA         PTCLDY    48  41  75 S7        30.17S
FRONT RANGE AP PTCLDY    52  43  71 SW12G17   30.16S
ERIE MUNI ARPT MOCLDY    46  38  72 CALM      30.15S
BOULDER MUN AP MOCLDY    50  37  62 CALM      30.15F
CENTENNIAL     MOCLDY    47  40  76 SE6       30.17S
BROOMFIELD     MOCLDY    57  32  38 W15       30.16F
FORT COLLINS   PTCLDY    46  36  66 N7        30.16F
LONGMONT       PTCLDY    52  39  60 NE3       30.17
$$

COZ041-046-047-076>085-087-088-230700-
...PIKES PEAK/PALMER DIVIDE AND SOUTHERN FOOTHILLS...

CITY           SKY/WX    TMP DP  RH WIND       PRES   REMARKS
COLO. SPRINGS  MOCLDY    45  39  79 NE6       30.22S
A. F. ACADEMY  MOCLDY    40  36  84 N8        30.22S
ELLICOTT       NOT AVBL
FALCON         MOCLDY    47  38  71 CALM      30.24S
FORT CARSON    MOCLDY    48  40  72 N2        30.19S
LIMON          MOCLDY    43  42  97 N3        30.17S
MONUMENT HILL  MOCLDY    45  36  70 SW6       30.21F
TRINIDAD       PTCLDY    50  40  68 NW8       30.16S
$$

COZ042>045-048>051-090-091-230700-
...NORTHEAST COLORADO...

CITY           SKY/WX    TMP DP  RH WIND       PRES   REMARKS
GREELEY ARPT   CLEAR     46  32  57 NE5       30.14F
AKRON          CLEAR     47  33  58 CALM      30.14R
BURLINGTON     CLEAR     46  41  82 SW3       30.12S
WRAY           CLEAR     42  33  71 CALM      30.11R
STERLING       CLEAR     43  36  75 W5        30.11F
HOLYOKE        CLEAR     45  32  61 SW5       30.10S
FORT MORGAN    CLEAR     47  33  58 NE6       30.14F
$$

COZ086-089-092>099-230700-
...SOUTHEAST COLORADO...

CITY           SKY/WX    TMP DP  RH WIND       PRES   REMARKS
PUEBLO         PTCLDY    53  44  71 N8        30.13S
LA JUNTA       PTCLDY    57  46  66 S7        30.09F
LAMAR          MOCLDY    51  46  83 CALM      30.08S
SPRINGFIELD      N/A     50  45  83 CALM      30.11F
$$



USA.gov is the U.S. government's official web portal to all federal, state and local government web resources and services.